Location: Bouillancy
(49.1149°N, 2.9308°E)
Time: 08:36:42
(UTC+00:00)

Cosmos 1025 Rocket - Pass Details

Date: 30 September 2020
Orbit: 595 x 617 km, 82.5° (Epoch: 29 October)

Event Time Altitude Azimuth Distance (km) Brightness Sun altitude
Rises 18:09:27 0° 347° (NNW) 2,901 6.7 -7.6°
Reaches altitude 10° 18:11:42 10° 343° (NNW) 1,992 6.0 -7.9°
Maximum altitude 18:16:03 60° 265° (W) 712 3.7 -8.6°
Drops below altitude 10° 18:20:22 10° 185° (S) 1,977 5.7 -9.3°
Sets 18:22:36 0° 182° (S) 2,877 6.4 -9.7°
